Tracking 35331 objects as of 16-Sep-2026
HD Live streaming from Space Station
objects crossing your sky now

COSMOS 1484 DEB


COSMOS 1484 DEB is no longer on orbit


NORAD ID: 22940
Int'l Code: 1983-075AD
Launch date: July 24, 1983
Source: Commonwealth of Independent States (former USSR) (CIS)
Launch site: TYURATAM MISSILE AND SPACE COMPLEX (TTMTR)
Decay date: 1995-08-22

Note: This is SATELLITE DEBRIS
Your satellite tracking list
Your tracking list is empty




NASA's NSSDC Master Catalog

Two Line Element Set (TLE):
1 22940U 83075 AD 95197.56049154  .00268905 +00000-0 +24252-2 0  9992
2 22940 097.4848 230.9950 0005332 089.2859 278.5428 15.67311158003435
Source of the keplerian elements: AFSPC